Time,TemperatureF,DewpointF,PressureIn,WindDirection,WindDirectionDegrees,WindSpeedMPH,WindSpeedGustMPH,Humidity,HourlyPrecipIn,Conditions,Clouds,dailyrainin,SoftwareType,DateUTC
2013-05-04 00:07:00,63.6,41.0,30.02,ENE,65,0.0,3.0,43,0.00,,,0.00,weatherlink.com 1.10,2013-05-04 04:07:00,
2013-05-04 00:22:00,63.4,41.0,30.02,East,82,1.0,3.0,44,0.00,,,0.00,weatherlink.com 1.10,2013-05-04 04:22:00,
2013-05-04 00:37:00,63.0,42.0,30.02,ESE,120,0.0,3.0,46,0.00,,,0.00,weatherlink.com 1.10,2013-05-04 04:37:00,
2013-05-04 00:52:00,62.2,42.0,30.02,North,357,0.0,1.0,47,0.00,,,0.00,weatherlink.com 1.10,2013-05-04 04:52:00,
2013-05-04 01:07:00,62.1,41.0,30.02,SE,139,0.0,1.0,47,0.00,,,0.00,weatherlink.com 1.10,2013-05-04 05:07:00,
2013-05-04 01:22:00,61.9,41.0,30.02,NNW,335,1.0,4.0,47,0.00,,,0.00,weatherlink.com 1.10,2013-05-04 05:22:00,
2013-05-04 01:37:00,61.8,42.0,30.02,ENE,75,0.0,4.0,48,0.00,,,0.00,weatherlink.com 1.10,2013-05-04 05:37:00,
2013-05-04 01:52:00,61.2,42.0,30.02,NNW,345,0.0,3.0,49,0.00,,,0.00,weatherlink.com 1.10,2013-05-04 05:52:00,
2013-05-04 02:07:00,61.0,42.0,30.02,SE,143,0.0,4.0,50,0.00,,,0.00,weatherlink.com 1.10,2013-05-04 06:07:00,
2013-05-04 02:22:00,60.9,41.0,30.02,NNE,15,0.0,4.0,49,0.00,,,0.00,weatherlink.com 1.10,2013-05-04 06:22:00,
2013-05-04 02:37:00,60.6,42.0,30.02,SSE,149,0.0,2.0,50,0.00,,,0.00,weatherlink.com 1.10,2013-05-04 06:37:00,
2013-05-04 02:52:00,61.1,42.0,30.02,SE,145,3.0,6.0,49,0.00,,,0.00,weatherlink.com 1.10,2013-05-04 06:52:00,
2013-05-04 03:07:00,61.1,42.0,30.02,SSE,166,0.0,5.0,49,0.00,,,0.00,weatherlink.com 1.10,2013-05-04 07:07:00,
2013-05-04 03:22:00,60.4,42.0,30.02,SE,124,0.0,6.0,51,0.00,,,0.00,weatherlink.com 1.10,2013-05-04 07:22:00,
2013-05-04 03:37:00,59.7,42.0,30.02,SSW,198,1.0,2.0,52,0.00,,,0.00,weatherlink.com 1.10,2013-05-04 07:37:00,
2013-05-04 03:52:00,59.5,42.0,30.02,South,176,3.0,3.0,53,0.00,,,0.00,weatherlink.com 1.10,2013-05-04 07:52:00,
2013-05-04 04:07:00,59.2,42.0,30.02,ENE,70,0.0,2.0,53,0.00,,,0.00,weatherlink.com 1.10,2013-05-04 08:07:00,
2013-05-04 04:22:00,59.2,42.0,30.02,SE,137,2.0,10.0,54,0.00,,,0.00,weatherlink.com 1.10,2013-05-04 08:22:00,
2013-05-04 04:37:00,59.3,42.0,30.03,South,191,0.0,4.0,53,0.00,,,0.00,weatherlink.com 1.10,2013-05-04 08:37:00,
2013-05-04 04:52:00,59.1,42.0,30.03,SSE,151,1.0,3.0,53,0.00,,,0.00,weatherlink.com 1.10,2013-05-04 08:52:00,
2013-05-04 05:07:00,58.6,42.0,30.03,ESE,121,2.0,4.0,54,0.00,,,0.00,weatherlink.com 1.10,2013-05-04 09:07:00,
2013-05-04 05:22:00,57.8,42.0,30.03,SE,134,0.0,4.0,55,0.00,,,0.00,weatherlink.com 1.10,2013-05-04 09:22:00,
2013-05-04 05:37:00,57.6,41.0,30.03,SE,132,0.0,4.0,55,0.00,,,0.00,weatherlink.com 1.10,2013-05-04 09:37:00,
2013-05-04 05:53:00,57.6,42.0,30.03,East,91,1.0,5.0,56,0.00,,,0.00,weatherlink.com 1.10,2013-05-04 09:53:00,
2013-05-04 06:08:00,57.9,42.0,30.04,ESE,111,0.0,4.0,56,0.00,,,0.00,weatherlink.com 1.10,2013-05-04 10:08:00,
2013-05-04 06:23:00,58.0,42.0,30.04,SE,129,1.0,4.0,56,0.00,,,0.00,weatherlink.com 1.10,2013-05-04 10:23:00,
2013-05-04 06:38:00,57.8,43.0,30.04,WSW,245,0.0,2.0,58,0.00,,,0.00,weatherlink.com 1.10,2013-05-04 10:38:00,
2013-05-04 06:53:00,57.7,43.0,30.04,NE,53,0.0,3.0,59,0.00,,,0.00,weatherlink.com 1.10,2013-05-04 10:53:00,
2013-05-04 07:08:00,58.1,44.0,30.05,SSE,163,1.0,4.0,59,0.00,,,0.00,weatherlink.com 1.10,2013-05-04 11:08:00,
2013-05-04 07:23:00,58.2,44.0,30.05,ENE,58,2.0,4.0,60,0.00,,,0.00,weatherlink.com 1.10,2013-05-04 11:23:00,
2013-05-04 07:38:00,58.8,45.0,30.05,SSW,200,2.0,4.0,60,0.00,,,0.00,weatherlink.com 1.10,2013-05-04 11:38:00,
2013-05-04 07:53:00,59.3,45.0,30.05,SE,131,4.0,7.0,59,0.00,,,0.00,weatherlink.com 1.10,2013-05-04 11:53:00,
2013-05-04 08:23:00,59.9,46.0,30.05,ESE,110,0.0,7.0,60,0.00,,,0.00,weatherlink.com 1.10,2013-05-04 12:23:00,
2013-05-04 08:38:00,60.1,46.0,30.05,WSW,245,0.0,5.0,60,0.00,,,0.00,weatherlink.com 1.10,2013-05-04 12:38:00,
2013-05-04 08:53:00,60.6,46.0,30.06,SSE,160,4.0,6.0,60,0.00,,,0.00,weatherlink.com 1.10,2013-05-04 12:53:00,
2013-05-04 09:08:00,60.9,47.0,30.06,SSE,150,2.0,11.0,60,0.00,,,0.00,weatherlink.com 1.10,2013-05-04 13:08:00,
2013-05-04 09:23:00,61.4,47.0,30.06,SSE,160,3.0,7.0,59,0.00,,,0.00,weatherlink.com 1.10,2013-05-04 13:23:00,
2013-05-04 09:38:00,62.0,46.0,30.06,South,184,4.0,9.0,57,0.00,,,0.00,weatherlink.com 1.10,2013-05-04 13:38:00,
2013-05-04 09:53:00,62.7,47.0,30.05,SSE,149,5.0,12.0,57,0.00,,,0.00,weatherlink.com 1.10,2013-05-04 13:53:00,
2013-05-04 10:08:00,63.1,47.0,30.05,ESE,107,2.0,9.0,56,0.00,,,0.00,weatherlink.com 1.10,2013-05-04 14:08:00,
2013-05-04 10:23:00,63.7,48.0,30.05,East,83,3.0,6.0,56,0.00,,,0.00,weatherlink.com 1.10,2013-05-04 14:23:00,
2013-05-04 10:38:00,64.2,47.0,30.06,NNE,32,2.0,10.0,54,0.00,,,0.00,weatherlink.com 1.10,2013-05-04 14:38:00,
2013-05-04 10:53:00,64.6,47.0,30.06,SSE,150,3.0,15.0,54,0.00,,,0.00,weatherlink.com 1.10,2013-05-04 14:53:00,
2013-05-04 11:08:00,64.9,47.0,30.06,NNE,13,2.0,8.0,53,0.00,,,0.00,weatherlink.com 1.10,2013-05-04 15:08:00,
2013-05-04 11:23:00,65.2,47.0,30.06,NW,319,1.0,7.0,52,0.00,,,0.00,weatherlink.com 1.10,2013-05-04 15:23:00,
2013-05-04 11:38:00,65.5,48.0,30.06,East,94,2.0,7.0,53,0.00,,,0.00,weatherlink.com 1.10,2013-05-04 15:38:00,
2013-05-04 11:53:00,66.1,47.0,30.06,SSE,163,2.0,10.0,51,0.00,,,0.00,weatherlink.com 1.10,2013-05-04 15:53:00,
2013-05-04 12:08:00,66.2,47.0,30.06,East,101,0.0,8.0,51,0.00,,,0.00,weatherlink.com 1.10,2013-05-04 16:08:00,
2013-05-04 12:23:00,66.9,47.0,30.06,SE,145,3.0,5.0,49,0.00,,,0.00,weatherlink.com 1.10,2013-05-04 16:23:00,
2013-05-04 12:38:00,67.0,46.0,30.06,NNE,28,2.0,9.0,48,0.00,,,0.00,weatherlink.com 1.10,2013-05-04 16:38:00,
2013-05-04 12:53:00,67.5,48.0,30.05,ESE,119,2.0,7.0,49,0.00,,,0.00,weatherlink.com 1.10,2013-05-04 16:53:00,
2013-05-04 13:08:00,67.7,48.0,30.05,WNW,285,2.0,6.0,49,0.00,,,0.00,weatherlink.com 1.10,2013-05-04 17:08:00,
2013-05-04 13:23:00,68.7,48.0,30.05,ESE,108,4.0,10.0,48,0.00,,,0.00,weatherlink.com 1.10,2013-05-04 17:23:00,
2013-05-04 13:38:00,68.9,48.0,30.05,East,90,4.0,9.0,48,0.00,,,0.00,weatherlink.com 1.10,2013-05-04 17:38:00,
2013-05-04 13:53:00,69.6,48.0,30.04,East,91,5.0,9.0,47,0.00,,,0.00,weatherlink.com 1.10,2013-05-04 17:53:00,
2013-05-04 14:08:00,70.3,49.0,30.04,South,188,3.0,7.0,47,0.00,,,0.00,weatherlink.com 1.10,2013-05-04 18:08:00,
2013-05-04 14:23:00,70.5,49.0,30.03,SE,143,3.0,8.0,46,0.00,,,0.00,weatherlink.com 1.10,2013-05-04 18:23:00,
2013-05-04 14:38:00,72.0,49.0,30.03,NNW,338,4.0,11.0,44,0.00,,,0.00,weatherlink.com 1.10,2013-05-04 18:38:00,
2013-05-04 14:53:00,73.2,48.0,30.02,West,266,1.0,8.0,41,0.00,,,0.00,weatherlink.com 1.10,2013-05-04 18:53:00,
2013-05-04 15:08:00,73.8,49.0,30.02,SW,228,2.0,7.0,41,0.00,,,0.00,weatherlink.com 1.10,2013-05-04 19:08:00,
2013-05-04 15:23:00,74.3,48.0,30.01,SSE,159,2.0,9.0,39,0.00,,,0.00,weatherlink.com 1.10,2013-05-04 19:23:00,
2013-05-04 15:39:00,75.3,47.0,30.00,SW,221,2.0,5.0,37,0.00,,,0.00,weatherlink.com 1.10,2013-05-04 19:39:00,
2013-05-04 15:54:00,74.6,44.0,30.00,SSE,166,5.0,9.0,34,0.00,,,0.00,weatherlink.com 1.10,2013-05-04 19:54:00,
2013-05-04 16:09:00,74.2,42.0,30.00,ESE,120,1.0,11.0,31,0.00,,,0.00,weatherlink.com 1.10,2013-05-04 20:09:00,
2013-05-04 16:24:00,73.1,40.0,29.99,SE,143,1.0,10.0,30,0.00,,,0.00,weatherlink.com 1.10,2013-05-04 20:24:00,
2013-05-04 16:39:00,73.7,37.0,29.99,NE,51,3.0,10.0,26,0.00,,,0.00,weatherlink.com 1.10,2013-05-04 20:39:00,
2013-05-04 16:54:00,73.8,37.0,29.99,South,184,3.0,10.0,26,0.00,,,0.00,weatherlink.com 1.10,2013-05-04 20:54:00,
2013-05-04 17:09:00,74.2,37.0,29.99,ENE,63,2.0,14.0,26,0.00,,,0.00,weatherlink.com 1.10,2013-05-04 21:09:00,
2013-05-04 17:24:00,74.5,36.0,29.99,SE,142,1.0,9.0,25,0.00,,,0.00,weatherlink.com 1.10,2013-05-04 21:24:00,
2013-05-04 17:39:00,74.0,34.0,29.99,South,188,4.0,9.0,23,0.00,,,0.00,weatherlink.com 1.10,2013-05-04 21:39:00,
2013-05-04 17:54:00,73.1,34.0,30.00,SW,214,2.0,11.0,24,0.00,,,0.00,weatherlink.com 1.10,2013-05-04 21:54:00,
2013-05-04 18:09:00,73.4,36.0,30.00,SSE,152,6.0,10.0,26,0.00,,,0.00,weatherlink.com 1.10,2013-05-04 22:09:00,
2013-05-04 18:24:00,72.9,35.0,30.00,West,278,3.0,8.0,25,0.00,,,0.00,weatherlink.com 1.10,2013-05-04 22:24:00,
2013-05-04 18:39:00,72.1,36.0,30.00,ENE,60,4.0,12.0,27,0.00,,,0.00,weatherlink.com 1.10,2013-05-04 22:39:00,
2013-05-04 18:54:00,71.0,38.0,30.01,SW,217,1.0,12.0,30,0.00,,,0.00,weatherlink.com 1.10,2013-05-04 22:54:00,
2013-05-04 19:09:00,70.1,37.0,30.01,East,94,4.0,9.0,30,0.00,,,0.00,weatherlink.com 1.10,2013-05-04 23:09:00,
2013-05-04 19:24:00,69.2,37.0,30.02,WNW,296,1.0,11.0,31,0.00,,,0.00,weatherlink.com 1.10,2013-05-04 23:24:00,
2013-05-04 19:39:00,67.9,38.0,30.02,East,91,2.0,8.0,34,0.00,,,0.00,weatherlink.com 1.10,2013-05-04 23:39:00,
2013-05-04 19:54:00,66.7,38.0,30.03,ESE,114,1.0,7.0,35,0.00,,,0.00,weatherlink.com 1.10,2013-05-04 23:54:00,
2013-05-04 20:09:00,65.7,39.0,30.04,SSE,150,1.0,5.0,37,0.00,,,0.00,weatherlink.com 1.10,2013-05-05 00:09:00,
2013-05-04 20:24:00,64.7,39.0,30.04,West,264,0.0,3.0,39,0.00,,,0.00,weatherlink.com 1.10,2013-05-05 00:24:00,
2013-05-04 20:39:00,63.4,39.0,30.04,ESE,113,1.0,1.0,41,0.00,,,0.00,weatherlink.com 1.10,2013-05-05 00:39:00,
2013-05-04 20:54:00,62.5,40.0,30.05,SE,129,0.0,0.0,43,0.00,,,0.00,weatherlink.com 1.10,2013-05-05 00:54:00,
2013-05-04 21:09:00,60.7,40.0,30.05,SE,129,0.0,0.0,46,0.00,,,0.00,weatherlink.com 1.10,2013-05-05 01:09:00,
2013-05-04 21:24:00,58.9,40.0,30.05,SE,129,0.0,0.0,50,0.00,,,0.00,weatherlink.com 1.10,2013-05-05 01:24:00,
2013-05-04 21:39:00,57.4,41.0,30.06,SE,129,0.0,0.0,55,0.00,,,0.00,weatherlink.com 1.10,2013-05-05 01:39:00,
2013-05-04 21:54:00,56.7,41.0,30.06,East,80,0.0,1.0,56,0.00,,,0.00,weatherlink.com 1.10,2013-05-05 01:54:00,
2013-05-04 22:09:00,56.6,41.0,30.06,East,79,0.0,0.0,56,0.00,,,0.00,weatherlink.com 1.10,2013-05-05 02:09:00,
2013-05-04 22:24:00,56.4,42.0,30.07,East,79,0.0,0.0,59,0.00,,,0.00,weatherlink.com 1.10,2013-05-05 02:24:00,
2013-05-04 22:39:00,55.6,43.0,30.07,NW,309,0.0,0.0,62,0.00,,,0.00,weatherlink.com 1.10,2013-05-05 02:39:00,
2013-05-04 22:54:00,56.0,42.0,30.07,NW,312,0.0,1.0,59,0.00,,,0.00,weatherlink.com 1.10,2013-05-05 02:54:00,
2013-05-04 23:09:00,57.1,41.0,30.06,NNW,330,0.0,1.0,56,0.00,,,0.00,weatherlink.com 1.10,2013-05-05 03:09:00,
2013-05-04 23:24:00,57.3,41.0,30.07,East,98,0.0,1.0,55,0.00,,,0.00,weatherlink.com 1.10,2013-05-05 03:24:00,
2013-05-04 23:39:00,56.8,41.0,30.06,East,99,0.0,0.0,55,0.00,,,0.00,weatherlink.com 1.10,2013-05-05 03:39:00,
2013-05-04 23:54:00,57.5,41.0,30.06,East,91,1.0,3.0,54,0.00,,,0.00,weatherlink.com 1.10,2013-05-05 03:54:00,